DW2659 Weather Reports


time (UTC)temp
C
wind
direction
speed
KPH
gust
KPH
rain 1hr
cm
rain 24hr
cm
rain mn
cm
humidity
%
barometer
mb
20260510072403 13 169 0.0 0.0 0.00 0.00 0.00 86 1013.3
20260510071903 13 169 0.0 0.0 0.00 0.00 0.00 86 1013.3
20260510071404 13 169 0.0 1.6 0.00 0.00 0.00 86 1013.3
20260510070903 13 169 0.0 1.6 0.00 0.00 0.00 86 1013.3
20260510070402 13 169 0.0 0.0 0.00 0.00 0.00 86 1013.3
20260510065904 13 169 0.0 0.0 0.00 0.00 0.00 86 1013.5
20260510065402 13 169 0.0 1.6 0.00 0.00 0.00 86 1013.5
20260510064903 13 169 0.0 0.0 0.00 0.00 0.00 86 1013.5
20260510064404 13 169 0.0 0.0 0.00 0.00 0.00 85 1013.5
20260510063903 13 169 0.0 0.0 0.00 0.00 0.00 86 1013.5
20260510063403 13 169 0.0 1.6 0.00 0.00 0.00 85 1013.5
20260510062904 14 169 0.0 0.0 0.00 0.00 0.00 85 1013.4
20260510062403 14 169 0.0 0.0 0.00 0.00 0.00 85 1013.4
20260510061903 14 169 0.0 1.6 0.00 0.00 0.00 85 1013.5
20260510060903 14 169 0.0 3.2 0.00 0.00 0.00 85 1013.5
20260510060404 14 169 0.0 1.6 0.00 0.00 0.00 85 1013.5
20260510055904 14 169 0.0 1.6 0.00 0.00 0.00 85 1013.5
20260510054903 15 169 0.0 0.0 0.00 0.00 0.00 85 1013.5
20260510054404 15 169 0.0 0.0 0.00 0.00 0.00 84 1013.6
20260510053403 15 169 0.0 0.0 0.00 0.00 0.00 84 1013.6
20260510052903 15 169 0.0 0.0 0.00 0.00 0.00 84 1013.5
20260510052404 15 169 0.0 0.0 0.00 0.00 0.00 84 1013.5
20260510051903 15 169 0.0 0.0 0.00 0.00 0.00 84 1013.5
20260510051403 15 169 0.0 1.6 0.00 0.00 0.00 83 1014.1
20260510050903 15 169 0.0 1.6 0.00 0.00 0.00 83 1014.1
20260510050404 16 169 0.0 1.6 0.00 0.00 0.00 83 1014.1
20260510045903 16 213 0.0 0.0 0.00 0.00 0.00 83 1014.1
20260510045403 16 213 0.0 0.0 0.00 0.00 0.00 83 1014.1
20260510044404 16 114 0.0 0.0 0.00 0.00 0.00 82 1013.8
20260510043903 16 114 0.0 1.6 0.00 0.00 0.00 82 1013.8
20260510043404 16 114 0.0 0.0 0.00 0.00 0.00 82 1013.8
20260510042903 16 114 0.0 0.0 0.00 0.00 0.00 81 1013.9
20260510041903 16 114 0.0 1.6 0.00 0.00 0.00 81 1013.8
20260510041403 16 114 0.0 1.6 0.00 0.00 0.00 81 1013.7
20260510040905 17 114 1.6 4.8 0.00 0.00 0.00 80 1013.7
20260510040403 17 242 0.0 3.2 0.00 0.00 0.00 80 1013.7
20260510035903 17 267 0.0 3.2 0.00 0.00 0.00 81 1013.7
20260510035404 17 263 1.6 3.2 0.00 0.00 0.00 82 1013.7
20260510034904 17 250 0.0 1.6 0.00 0.00 0.00 82 1013.7
20260510033904 17 250 0.0 0.0 0.00 0.00 0.00 81 1013.2
20260510033405 17 250 0.0 0.0 0.00 0.00 0.00 80 1013.2
20260510032903 17 250 0.0 3.2 0.00 0.00 0.00 79 1013.2
20260510032403 17 250 1.6 3.2 0.00 0.00 0.00 79 1013.2
20260510031904 18 243 1.6 3.2 0.00 0.00 0.00 78 1013.2
20260510031403 18 243 1.6 3.2 0.00 0.00 0.00 77 1013.4
20260510030903 18 269 0.0 3.2 0.00 0.00 0.00 77 1013.4
20260510030405 18 276 1.6 4.8 0.00 0.00 0.00 77 1013.4
20260510025903 18 250 1.6 3.2 0.00 0.00 0.00 77 1013.2
20260510025403 18 238 1.6 4.8 0.00 0.00 0.00 77 1013.2
20260510024904 18 241 1.6 3.2 0.00 0.00 0.00 77 1013.2
20260510023903 18 262 1.6 3.2 0.00 0.00 0.00 76 1013.2
20260510023405 18 239 1.6 3.2 0.00 0.00 0.00 76 1013.1
20260510022903 18 254 1.6 3.2 0.00 0.00 0.00 76 1013.0
20260510022403 18 222 1.6 4.8 0.00 0.00 0.00 76 1013.0
20260510021904 18 250 1.6 3.2 0.00 0.00 0.00 77 1013.0
20260510021404 18 215 1.6 3.2 0.00 0.00 0.00 77 1012.8
20260510020904 18 250 0.0 1.6 0.00 0.00 0.00 77 1012.8
20260510015905 18 202 0.0 1.6 0.00 0.00 0.00 78 1012.7
20260510014903 18 192 0.0 3.2 0.00 0.00 0.00 78 1012.7
20260510014404 18 244 0.0 0.0 0.00 0.00 0.00 78 1012.4
20260510013903 18 244 0.0 0.0 0.00 0.00 0.00 78 1012.4
20260510013404 18 244 0.0 0.0 0.00 0.00 0.00 78 1012.4
20260510012904 18 244 0.0 0.0 0.00 0.00 0.00 78 1012.2
20260510012403 18 244 0.0 0.0 0.00 0.00 0.00 78 1012.2
20260510011904 18 244 0.0 0.0 0.00 0.00 0.00 77 1012.2
20260510011404 18 244 0.0 0.0 0.00 0.00 0.00 77 1012.1
20260510010404 18 244 0.0 0.0 0.00 0.00 0.00 76 1012.1
20260510005904 19 244 0.0 0.0 0.00 0.00 0.00 76 1011.8
20260510005404 19 244 0.0 0.0 0.00 0.00 0.00 75 1011.8
20260510004404 20 244 0.0 0.0 0.00 0.00 0.00 75 1011.8
20260510003904 20 244 0.0 0.0 0.00 0.00 0.00 74 1011.8
20260510002904 20 244 0.0 1.6 0.00 0.00 0.00 74 1011.6
20260510002403 20 244 0.0 0.0 0.00 0.00 0.00 73 1011.6
20260510001904 20 244 0.0 0.0 0.00 0.00 0.00 73 1011.6
20260510001404 20 244 0.0 0.0 0.00 0.00 0.00 73 1011.2
20260510000903 20 244 0.0 0.0 0.00 0.00 0.00 72 1011.2
20260510000404 21 244 0.0 1.6 0.00 0.00 0.00 72 1011.2
20260509235905 21 244 0.0 1.6 0.00 0.00 0.00 71 1011.3
20260509235403 21 244 0.0 0.0 0.00 0.00 0.00 70 1011.3
20260509234903 21 244 0.0 3.2 0.00 0.00 0.00 69 1011.3
20260509234405 21 244 0.0 1.6 0.00 0.00 0.00 68 1011.2
20260509233903 21 244 0.0 1.6 0.00 0.00 0.00 69 1011.2
20260509233403 21 244 0.0 1.6 0.00 0.00 0.00 69 1011.2
20260509232904 21 244 0.0 3.2 0.00 0.00 0.00 68 1011.1
20260509232403 21 231 1.6 3.2 0.00 0.00 0.00 68 1011.1
20260509231903 21 249 1.6 4.8 0.00 0.00 0.00 68 1011.1
20260509231404 22 204 3.2 8.0 0.00 0.00 0.00 68 1011.1
20260509230905 22 217 0.0 4.8 0.00 0.00 0.00 68 1011.0
20260509230404 22 220 1.6 4.8 0.00 0.00 0.00 67 1011.0
20260509225904 22 263 1.6 4.8 0.00 0.00 0.00 67 1011.0
20260509225404 22 252 1.6 4.8 0.00 0.00 0.00 66 1011.0
20260509224404 22 263 1.6 8.0 0.00 0.00 0.00 66 1011.1
20260509223904 22 171 6.4 9.7 0.00 0.00 0.00 65 1010.9
20260509223403 22 216 3.2 4.8 0.00 0.00 0.00 66 1010.9
20260509222904 22 126 3.2 8.0 0.00 0.00 0.00 66 1010.9
20260509222405 22 156 3.2 8.0 0.00 0.00 0.00 66 1010.9
20260509221903 22 242 4.8 11.3 0.00 0.00 0.00 65 1010.9
20260509220904 22 162 8.0 12.9 0.00 0.00 0.00 65 1010.7
20260509220404 22 126 4.8 9.7 0.00 0.00 0.00 65 1010.7
20260509215904 22 169 4.8 9.7 0.00 0.00 0.00 64 1010.6
20260509215405 22 146 3.2 9.7 0.00 0.00 0.00 65 1010.6
20260509214904 22 231 1.6 4.8 0.00 0.00 0.00 65 1010.6
20260509214403 22 139 3.2 8.0 0.00 0.00 0.00 65 1010.7
20260509213905 22 159 4.8 8.0 0.00 0.00 0.00 66 1010.7
20260509213404 22 248 3.2 9.7 0.00 0.00 0.00 66 1010.7
20260509212903 22 262 4.8 8.0 0.00 0.00 0.00 65 1010.7
20260509212405 22 272 3.2 8.0 0.00 0.00 0.00 64 1010.7
20260509211903 22 124 4.8 9.7 0.00 0.00 0.00 65 1010.7
20260509211404 22 117 3.2 9.7 0.00 0.00 0.00 66 1010.7
20260509210904 22 177 6.4 11.3 0.00 0.00 0.00 66 1010.7
20260509210403 22 154 6.4 11.3 0.00 0.00 0.00 65 1010.1
20260509205903 22 108 8.0 9.7 0.00 0.00 0.00 66 1010.1
20260509205403 22 244 8.0 11.3 0.00 0.00 0.00 65 1010.1
20260509204403 22 185 4.8 9.7 0.00 0.00 0.00 65 1010.1
20260509203903 22 172 4.8 12.9 0.00 0.00 0.00 64 1010.1
20260509203405 22 140 4.8 9.7 0.00 0.00 0.00 65 1010.1
20260509202904 22 220 4.8 9.7 0.00 0.00 0.00 65 1010.1
20260509202404 22 107 3.2 8.0 0.00 0.00 0.00 64 1010.1
20260509201903 22 164 4.8 9.7 0.00 0.00 0.00 64 1010.1
20260509201405 22 131 4.8 9.7 0.00 0.00 0.00 64 1010.1
20260509200904 22 180 4.8 9.7 0.00 0.00 0.00 64 1010.1
20260509200404 22 163 6.4 11.3 0.00 0.00 0.00 65 1010.1
20260509195905 22 194 8.0 14.5 0.00 0.00 0.00 63 1010.8
20260509195404 22 156 6.4 12.9 0.00 0.00 0.00 63 1010.8
20260509194903 22 108 3.2 11.3 0.00 0.00 0.00 64 1010.8
20260509193905 22 236 3.2 12.9 0.00 0.00 0.00 64 1010.8
20260509193403 22 156 3.2 8.0 0.00 0.00 0.00 63 1010.8
20260509192903 22 246 4.8 9.7 0.00 0.00 0.00 62 1010.8
20260509192404 22 182 1.6 8.0 0.00 0.00 0.00 63 1010.8
20260509191904 22 133 4.8 11.3 0.00 0.00 0.00 62 1010.8
20260509190905 22 253 4.8 12.9 0.00 0.00 0.00 61 1010.9
20260509190404 22 131 4.8 9.7 0.00 0.00 0.00 60 1010.9
20260509185404 22 113 1.6 4.8 0.00 0.00 0.00 59 1011.1
20260509184904 22 232 3.2 8.0 0.00 0.00 0.00 60 1011.1
20260509184403 22 215 3.2 8.0 0.00 0.00 0.00 59 1011.2
20260509183905 22 237 3.2 8.0 0.00 0.00 0.00 60 1011.2
20260509183404 22 233 3.2 8.0 0.00 0.00 0.00 57 1011.2
20260509182903 22 95 1.6 4.8 0.00 0.00 0.00 57 1011.2
20260509182404 22 187 3.2 4.8 0.00 0.00 0.00 59 1011.2
20260509181404 22 221 3.2 9.7 0.00 0.00 0.00 58 1011.2
20260509180404 22 136 3.2 9.7 0.00 0.00 0.00 60 1010.7
20260509175904 22 142 4.8 8.0 0.00 0.00 0.00 62 1010.7
20260509175405 22 243 4.8 11.3 0.00 0.00 0.00 56 1010.7
20260509174904 22 348 3.2 9.7 0.00 0.00 0.00 56 1010.7
20260509173403 22 130 6.4 9.7 0.00 0.00 0.00 58 1010.9
20260509172405 23 90 3.2 4.8 0.00 0.00 0.00 54 1011.4
20260509171903 23 65 1.6 3.2 0.00 0.00 0.00 53 1011.4
20260509171404 22 335 1.6 4.8 0.00 0.00 0.00 58 1011.5
20260509170403 22 231 3.2 11.3 0.00 0.00 0.00 56 1011.5
20260509165904 22 100 4.8 9.7 0.00 0.00 0.00 59 1011.8
20260509164904 22 127 3.2 8.0 0.00 0.00 0.00 60 1011.8
20260509164403 22 148 4.8 9.7 0.00 0.00 0.00 59 1012.0
20260509163905 22 178 6.4 12.9 0.00 0.00 0.00 60 1012.0
20260509162903 21 180 3.2 4.8 0.00 0.00 0.00 64 1011.9
20260509162404 21 248 3.2 4.8 0.00 0.00 0.00 63 1011.9
20260509161905 20 104 4.8 8.0 0.00 0.00 0.00 64 1011.8
20260509161404 20 188 3.2 11.3 0.00 0.00 0.00 65 1011.9
20260509160904 20 166 8.0 11.3 0.00 0.00 0.00 66 1011.9
20260509160405 20 212 4.8 14.5 0.00 0.00 0.00 67 1012.2
20260509155904 20 253 3.2 11.3 0.00 0.00 0.00 66 1012.2
20260509155404 19 115 4.8 9.7 0.00 0.00 0.00 69 1012.2
20260509154905 19 201 3.2 4.8 0.00 0.00 0.00 68 1012.2
20260509154404 19 315 1.6 4.8 0.00 0.00 0.00 67 1012.5
20260509153904 19 229 3.2 8.0 0.00 0.00 0.00 69 1012.5
20260509153404 18 235 1.6 8.0 0.00 0.00 0.00 69 1012.5
20260509152905 18 246 4.8 9.7 0.00 0.00 0.00 68 1012.5
20260509152404 18 223 4.8 12.9 0.00 0.00 0.00 69 1012.5
20260509151903 18 200 4.8 9.7 0.00 0.00 0.00 70 1012.5
20260509151404 18 145 4.8 9.7 0.00 0.00 0.00 71 1012.5
20260509150905 18 179 6.4 9.7 0.00 0.00 0.00 71 1012.5
20260509145405 18 213 3.2 9.7 0.00 0.00 0.00 71 1012.4
20260509144404 18 242 3.2 4.8 0.00 0.00 0.00 74 1012.3
20260509143905 18 247 4.8 9.7 0.00 0.00 0.00 74 1012.3
20260509143404 17 177 4.8 9.7 0.00 0.00 0.00 75 1012.1
20260509142904 17 178 3.2 8.0 0.00 0.00 0.00 76 1012.1
20260509141404 17 173 3.2 8.0 0.00 0.00 0.00 76 1011.3
20260509140906 17 217 4.8 8.0 0.00 0.00 0.00 76 1011.3
20260509140404 17 244 1.6 4.8 0.00 0.00 0.00 76 1011.3
20260509135905 16 173 1.6 3.2 0.00 0.00 0.00 77 1011.3
20260509134904 16 102 3.2 8.0 0.00 0.00 0.00 78 1011.3
20260509133905 16 148 3.2 4.8 0.00 0.00 0.00 79 1011.6
20260509133404 15 143 1.6 4.8 0.00 0.00 0.00 80 1011.5
20260509132904 15 206 0.0 3.2 0.00 0.00 0.00 80 1011.6
20260509132405 15 236 1.6 4.8 0.00 0.00 0.00 80 1011.6
20260509131904 15 233 1.6 4.8 0.00 0.00 0.00 80 1011.6
20260509131404 15 195 1.6 4.8 0.00 0.00 0.00 81 1011.8
20260509130404 15 234 0.0 3.2 0.00 0.00 0.00 82 1011.8
20260509125904 15 218 1.6 3.2 0.00 0.00 0.00 82 1011.7
20260509125409 14 175 0.0 3.2 0.00 0.00 0.00 83 1012.0
20260509124903 14 175 1.6 3.2 0.00 0.00 0.00 83 1012.0
20260509123904 14 175 0.0 0.0 0.00 0.00 0.00 84 1012.0
20260509123402 14 175 1.6 3.2 0.00 0.00 0.00 84 1011.9
20260509122903 14 175 1.6 3.2 0.00 0.00 0.00 85 1011.5
20260509121903 13 249 0.0 1.6 0.00 0.00 0.00 86 1011.5
20260509121402 13 249 0.0 1.6 0.00 0.00 0.00 87 1011.5
20260509120903 13 249 0.0 0.0 0.00 0.00 0.00 87 1011.5
20260509120402 13 249 0.0 0.0 0.00 0.00 0.00 87 1011.5
20260509115903 13 249 0.0 0.0 0.00 0.00 0.00 87 1011.3
20260509115404 13 249 0.0 0.0 0.00 0.00 0.00 87 1011.3
20260509114902 13 249 0.0 0.0 0.00 0.00 0.00 87 1011.3
20260509114402 13 249 0.0 0.0 0.00 0.00 0.00 87 1011.5
20260509113903 13 249 0.0 0.0 0.00 0.00 0.00 86 1011.5
20260509113404 13 249 0.0 0.0 0.00 0.00 0.00 86 1011.5
20260509112903 13 249 0.0 0.0 0.00 0.00 0.00 86 1011.5
20260509112403 13 249 0.0 0.0 0.00 0.00 0.00 86 1011.2
20260509111903 13 249 0.0 0.0 0.00 0.00 0.00 86 1011.2
20260509111403 13 249 0.0 0.0 0.00 0.00 0.00 86 1011.2
20260509110902 13 249 0.0 0.0 0.00 0.00 0.00 86 1011.2
20260509110404 13 249 0.0 0.0 0.00 0.00 0.00 86 1011.2
20260509105403 12 249 0.0 1.6 0.00 0.00 0.00 86 1011.2
20260509104902 12 249 0.0 1.6 0.00 0.00 0.00 87 1011.2
20260509104404 12 249 0.0 0.0 0.00 0.00 0.00 87 1011.4
20260509103902 12 249 0.0 1.6 0.00 0.00 0.00 87 1011.4
20260509102904 12 249 0.0 0.0 0.00 0.00 0.00 87 1011.2
20260509102403 12 249 0.0 1.6 0.00 0.00 0.00 87 1011.2
20260509101903 12 249 0.0 1.6 0.00 0.00 0.00 87 1011.2
20260509101403 12 249 0.0 3.2 0.00 0.00 0.00 86 1011.2
20260509100903 12 249 0.0 1.6 0.00 0.00 0.00 86 1011.2
20260509100403 12 249 0.0 0.0 0.00 0.00 0.00 86 1011.2
20260509095904 12 249 0.0 0.0 0.00 0.00 0.00 86 1011.2
20260509095403 12 249 0.0 0.0 0.00 0.00 0.00 86 1011.2
20260509094903 12 249 0.0 0.0 0.00 0.00 0.00 86 1011.3
20260509094403 12 249 0.0 0.0 0.00 0.00 0.00 87 1011.3
20260509093903 12 249 0.0 0.0 0.00 0.00 0.00 87 1011.3
20260509093402 12 249 0.0 1.6 0.00 0.00 0.00 87 1011.3
20260509092903 12 249 0.0 1.6 0.00 0.00 0.00 87 1011.4
20260509092404 12 249 0.0 0.0 0.00 0.00 0.00 87 1011.7
20260509091903 12 249 0.0 1.6 0.00 0.00 0.00 87 1011.7
20260509091402 12 249 0.0 0.0 0.00 0.00 0.00 87 1011.7
20260509090903 12 249 0.0 0.0 0.00 0.00 0.00 87 1011.7
20260509090404 12 249 0.0 0.0 0.00 0.00 0.00 87 1011.7
20260509085902 12 249 0.0 1.6 0.00 0.00 0.00 87 1011.6
20260509085402 12 249 0.0 3.2 0.00 0.00 0.00 87 1011.6
20260509084903 12 249 0.0 0.0 0.00 0.00 0.00 87 1011.6
20260509084404 12 249 0.0 0.0 0.00 0.00 0.00 87 1011.7
20260509083403 12 249 0.0 0.0 0.00 0.00 0.00 87 1011.7
20260509082404 12 249 0.0 0.0 0.00 0.00 0.00 87 1011.2
20260509081903 11 249 0.0 0.0 0.00 0.00 0.00 87 1011.2
20260509081402 11 249 0.0 0.0 0.00 0.00 0.00 87 1011.3
20260509080904 11 249 0.0 0.0 0.00 0.00 0.00 87 1011.3
20260509080403 11 249 0.0 0.0 0.00 0.00 0.00 87 1011.3
20260509075902 11 249 0.0 0.0 0.00 0.00 0.00 86 1011.2
20260509075403 11 249 0.0 0.0 0.00 0.00 0.00 87 1011.2
20260509074903 11 249 0.0 0.0 0.00 0.00 0.00 87 1011.2
20260509073903 11 249 0.0 1.6 0.00 0.00 0.00 87 1011.1
20260509073404 11 249 0.0 1.6 0.00 0.00 0.00 87 1011.1
20260509072903 11 249 0.0 0.0 0.00 0.00 0.00 87 1011.4